Location: Baia Mare
(47.6567°N, 23.5850°E)
Time: 07:44:51
(UTC+03:00)

ISS - Pass Details

Date: 28 May 2018
Orbit: 402 x 407 km, 51.6° (Epoch: 21 May)

Event Time Altitude Azimuth Distance (km) Brightness Sun altitude
Rises 23:37:25 0° 290° (WNW) 2,322 0.7 -16.8°
Reaches altitude 10° 23:39:33 10° 296° (WNW) 1,461 -0.3 -17.0°
Maximum altitude 23:42:44 48° 12° (NNE) 536 -2.9 -17.2°
Enters shadow 23:44:51 19° 82° (E) 1,050 -1.9 -17.4°
